Time,TemperatureF,DewpointF,PressureIn,WindDirection,WindDirectionDegrees,WindSpeedMPH,WindSpeedGustMPH,Humidity,HourlyPrecipIn,Conditions,Clouds,dailyrainin,SoftwareType,DateUTC
2013-08-13 00:02:00,66.0,53.0,-100.00,NNE,25,7.0,15.0,63,0.00,,,-99.99,,2013-08-13 05:02:00,
2013-08-13 00:12:00,66.0,53.0,-100.00,NNE,25,7.0,15.0,63,0.00,,,-99.99,,2013-08-13 05:12:00,
2013-08-13 00:52:00,64.0,56.0,-100.00,NNE,30,4.0,8.0,76,0.00,,,-99.99,,2013-08-13 05:52:00,
2013-08-13 01:02:00,64.0,56.0,-100.00,NNE,30,4.0,8.0,76,0.00,,,-99.99,,2013-08-13 06:02:00,
2013-08-13 01:11:00,64.0,56.0,-100.00,NNE,30,4.0,8.0,76,0.00,,,-99.99,,2013-08-13 06:11:00,
2013-08-13 01:52:00,62.0,58.0,-100.00,NNE,30,9.0,14.0,86,0.00,,,-99.99,,2013-08-13 06:52:00,
2013-08-13 02:01:00,62.0,58.0,-100.00,NNE,30,9.0,14.0,86,0.00,,,-99.99,,2013-08-13 07:01:00,
2013-08-13 02:12:00,62.0,58.0,-100.00,NNE,30,9.0,14.0,86,0.00,,,-99.99,,2013-08-13 07:12:00,
2013-08-13 02:52:00,58.0,51.0,-100.00,NE,45,4.0,9.0,77,0.00,,,-99.99,,2013-08-13 07:52:00,
2013-08-13 03:02:00,58.0,51.0,-100.00,NE,45,4.0,9.0,77,0.00,,,-99.99,,2013-08-13 08:02:00,
2013-08-13 03:11:00,58.0,51.0,-100.00,NE,45,4.0,9.0,77,0.00,,,-99.99,,2013-08-13 08:11:00,
2013-08-13 03:52:00,55.0,48.0,-100.00,NE,45,2.0,6.0,77,0.00,,,-99.99,,2013-08-13 08:52:00,
2013-08-13 04:01:00,55.0,48.0,-100.00,NE,45,2.0,6.0,77,0.00,,,-99.99,,2013-08-13 09:01:00,
2013-08-13 04:11:00,55.0,48.0,-100.00,NE,45,2.0,6.0,77,0.00,,,-99.99,,2013-08-13 09:11:00,
2013-08-13 04:54:00,53.0,48.0,-100.00,North,0,2.0,4.0,83,0.00,,,-99.99,,2013-08-13 09:54:00,
2013-08-13 05:03:00,53.0,48.0,-100.00,North,0,2.0,4.0,83,0.00,,,-99.99,,2013-08-13 10:03:00,
2013-08-13 05:12:00,53.0,48.0,-100.00,North,0,2.0,4.0,83,0.00,,,-99.99,,2013-08-13 10:12:00,
2013-08-13 05:53:00,51.0,47.0,-100.00,NNE,15,5.0,7.0,85,0.00,,,-99.99,,2013-08-13 10:53:00,
2013-08-13 06:02:00,51.0,47.0,-100.00,NNE,15,5.0,7.0,85,0.00,,,-99.99,,2013-08-13 11:02:00,
2013-08-13 06:11:00,51.0,47.0,-100.00,NNE,15,5.0,7.0,85,0.00,,,-99.99,,2013-08-13 11:11:00,
2013-08-13 06:52:00,51.0,47.0,-100.00,NNE,15,3.0,6.0,89,0.00,,,-99.99,,2013-08-13 11:52:00,
2013-08-13 07:01:00,51.0,47.0,-100.00,NNE,15,3.0,6.0,89,0.00,,,-99.99,,2013-08-13 12:01:00,
2013-08-13 07:12:00,51.0,47.0,-100.00,NNE,15,3.0,6.0,89,0.00,,,-99.99,,2013-08-13 12:12:00,
2013-08-13 07:52:00,55.0,48.0,-100.00,NNE,15,4.0,7.0,78,0.00,,,-99.99,,2013-08-13 12:52:00,
2013-08-13 08:01:00,55.0,48.0,-100.00,NNE,15,4.0,7.0,78,0.00,,,-99.99,,2013-08-13 13:01:00,
2013-08-13 08:11:00,55.0,48.0,-100.00,NNE,15,4.0,7.0,78,0.00,,,-99.99,,2013-08-13 13:11:00,
2013-08-13 08:52:00,59.0,47.0,-100.00,North,5,3.0,5.0,64,0.00,,,-99.99,,2013-08-13 13:52:00,
2013-08-13 09:02:00,59.0,47.0,-100.00,North,5,3.0,5.0,64,0.00,,,-99.99,,2013-08-13 14:02:00,
2013-08-13 09:11:00,59.0,47.0,-100.00,North,5,3.0,5.0,64,0.00,,,-99.99,,2013-08-13 14:11:00,
2013-08-13 09:52:00,62.0,46.0,-100.00,NNE,15,4.0,7.0,56,0.00,,,-99.99,,2013-08-13 14:52:00,
2013-08-13 10:02:00,62.0,46.0,-100.00,NNE,15,4.0,7.0,56,0.00,,,-99.99,,2013-08-13 15:02:00,
2013-08-13 10:11:00,62.0,46.0,-100.00,NNE,15,4.0,7.0,56,0.00,,,-99.99,,2013-08-13 15:11:00,
2013-08-13 10:54:00,63.0,42.0,-100.00,North,0,12.0,17.0,46,0.00,,,-99.99,,2013-08-13 15:54:00,
2013-08-13 11:03:00,63.0,42.0,-100.00,North,0,12.0,17.0,46,0.00,,,-99.99,,2013-08-13 16:03:00,
2013-08-13 11:13:00,63.0,42.0,-100.00,North,0,12.0,17.0,46,0.00,,,-99.99,,2013-08-13 16:13:00,
2013-08-13 11:54:00,65.0,42.0,-100.00,NW,305,9.0,14.0,43,0.00,,,-99.99,,2013-08-13 16:54:00,
2013-08-13 12:05:00,65.0,42.0,-100.00,NW,305,9.0,14.0,43,0.00,,,-99.99,,2013-08-13 17:05:00,
2013-08-13 12:16:00,65.0,42.0,-100.00,NW,305,9.0,14.0,43,0.00,,,-99.99,,2013-08-13 17:16:00,
2013-08-13 12:46:00,-999.0,-99.9,-100.00,North,0,4.0,13.0,-999,0.00,,,-99.99,,2013-08-13 17:46:00,
2013-08-13 12:56:00,69.0,41.0,-100.00,North,0,4.0,13.0,37,0.00,,,-99.99,,2013-08-13 17:56:00,
2013-08-13 13:05:00,69.0,41.0,-100.00,North,0,4.0,13.0,37,0.00,,,-99.99,,2013-08-13 18:05:00,
2013-08-13 13:15:00,69.0,41.0,-100.00,North,0,4.0,13.0,37,0.00,,,-99.99,,2013-08-13 18:15:00,
2013-08-13 13:56:00,68.0,41.0,-100.00,NW,320,8.0,12.0,37,0.00,,,-99.99,,2013-08-13 18:56:00,
2013-08-13 14:04:00,68.0,41.0,-100.00,NW,320,8.0,12.0,37,0.00,,,-99.99,,2013-08-13 19:04:00,
2013-08-13 14:14:00,68.0,41.0,-100.00,NW,320,8.0,12.0,37,0.00,,,-99.99,,2013-08-13 19:14:00,
2013-08-13 14:55:00,70.0,42.0,-100.00,NW,315,6.0,13.0,37,0.00,,,-99.99,,2013-08-13 19:55:00,
2013-08-13 15:04:00,70.0,42.0,-100.00,NW,315,6.0,13.0,37,0.00,,,-99.99,,2013-08-13 20:04:00,
2013-08-13 15:15:00,70.0,42.0,-100.00,NW,315,6.0,13.0,37,0.00,,,-99.99,,2013-08-13 20:15:00,
2013-08-13 15:53:00,69.0,41.0,-100.00,NNW,345,7.0,14.0,36,0.00,,,-99.99,,2013-08-13 20:53:00,
2013-08-13 16:01:00,69.0,41.0,-100.00,NNW,345,7.0,14.0,36,0.00,,,-99.99,,2013-08-13 21:01:00,
2013-08-13 16:11:00,69.0,41.0,-100.00,NNW,345,7.0,14.0,36,0.00,,,-99.99,,2013-08-13 21:11:00,
2013-08-13 16:54:00,71.0,40.0,-100.00,North,350,9.0,20.0,33,0.00,,,-99.99,,2013-08-13 21:54:00,
2013-08-13 17:04:00,71.0,40.0,-100.00,North,350,9.0,20.0,33,0.00,,,-99.99,,2013-08-13 22:04:00,
2013-08-13 17:13:00,71.0,40.0,-100.00,North,350,9.0,20.0,33,0.00,,,-99.99,,2013-08-13 22:13:00,
2013-08-13 17:57:00,68.0,43.0,-100.00,NW,310,6.0,10.0,40,0.00,,,-99.99,,2013-08-13 22:57:00,
2013-08-13 18:03:00,68.0,43.0,-100.00,NW,310,6.0,10.0,40,0.00,,,-99.99,,2013-08-13 23:03:00,
2013-08-13 18:13:00,68.0,43.0,-100.00,NW,310,6.0,10.0,40,0.00,,,-99.99,,2013-08-13 23:13:00,
2013-08-13 18:57:00,67.0,43.0,-100.00,North,0,5.0,9.0,41,0.00,,,-99.99,,2013-08-13 23:57:00,
2013-08-13 19:04:00,67.0,43.0,-100.00,North,0,5.0,9.0,41,0.00,,,-99.99,,2013-08-14 00:04:00,
2013-08-13 19:11:00,67.0,43.0,-100.00,North,0,5.0,9.0,41,0.00,,,-99.99,,2013-08-14 00:11:00,
2013-08-13 19:52:00,65.0,47.0,-100.00,NNE,20,3.0,5.0,52,0.00,,,-99.99,,2013-08-14 00:52:00,
2013-08-13 20:01:00,65.0,47.0,-100.00,NNE,20,3.0,5.0,52,0.00,,,-99.99,,2013-08-14 01:01:00,
2013-08-13 20:11:00,65.0,47.0,-100.00,NNE,20,3.0,5.0,52,0.00,,,-99.99,,2013-08-14 01:11:00,
2013-08-13 20:52:00,62.0,47.0,-100.00,NNE,25,2.0,6.0,57,0.00,,,-99.99,,2013-08-14 01:52:00,
2013-08-13 21:02:00,62.0,47.0,-100.00,NNE,25,2.0,6.0,57,0.00,,,-99.99,,2013-08-14 02:02:00,
2013-08-13 21:11:00,62.0,47.0,-100.00,NNE,25,2.0,6.0,57,0.00,,,-99.99,,2013-08-14 02:11:00,
2013-08-13 21:52:00,58.0,49.0,-100.00,North,0,2.0,3.0,72,0.00,,,-99.99,,2013-08-14 02:52:00,
2013-08-13 22:01:00,58.0,49.0,-100.00,North,0,2.0,3.0,72,0.00,,,-99.99,,2013-08-14 03:01:00,
2013-08-13 22:11:00,58.0,49.0,-100.00,North,0,2.0,3.0,72,0.00,,,-99.99,,2013-08-14 03:11:00,
2013-08-13 22:53:00,55.0,49.0,-100.00,NNE,20,1.0,2.0,79,0.00,,,-99.99,,2013-08-14 03:53:00,
2013-08-13 23:03:00,55.0,49.0,-100.00,NNE,20,1.0,2.0,79,0.00,,,-99.99,,2013-08-14 04:03:00,
2013-08-13 23:12:00,55.0,49.0,-100.00,NNE,20,1.0,2.0,79,0.00,,,-99.99,,2013-08-14 04:12:00,
2013-08-13 23:52:00,53.0,49.0,-100.00,NE,35,2.0,3.0,87,0.00,,,-99.99,,2013-08-14 04:52:00,